(235811) = 1999 VY220 = 2004 XT58

Discovered at Kitt Peak on 2004-12-10 by Spacewatch.

Orbit

Orbit type: Main Belt

Note: WebGL enabled browser required.

epoch2023-09-13.0
epoch JD2460200.5
perihelion date2022-05-20.71296
perihelion JD2459720.21296
argument of perihelion (°)208.83855
ascending node (°)30.58288
inclination (°)4.73870
eccentricity0.1970276
perihelion distance (AU)2.0341291
Tisserand w.r.t. Jupiter3.4
ΔV w.r.t. Earth (km/sec)9.1
semimajor axis (AU)2.5332491
mean anomaly (°)117.40534
mean daily motion (°/day)0.24444830
aphelion distance (AU)3.032
period (years)4.03
P-vector [x]-0.50955835
P-vector [y]-0.77273742
P-vector [z]-0.37845367
Q-vector [x]0.85940889
Q-vector [y]-0.43559030
Q-vector [z]-0.26772645
absolute magnitude16.18
phase slope0.15
uncertainty0
referenceMPEC 2024-A65
observations used493
oppositions16
arc length (days)8828
first opposition used1999
last opposition used2024
residual rms (arc-secs)0.72
perturbers coarse indicatorM-v
perturbers precise indicator003Ek
first observation date used1999-11-04.0
last observation date used2024-01-05.0
computer nameMPCLINUX
JD of orbit computation2456847.694451
perihelion JD uncertainty (days)4.1201E-05
argument of perihelion uncertainty (°)4.5141E-05
ascending node uncertainty (°)4.3841E-05
inclination uncertainty (°)4.9223E-06
eccentricity uncertainty 4.7052E-08
perihelion distance uncertainty (AU)1.2003E-07
Minimum Orbit Intersection Distances (in AU)
for orbit epoch: 2460200.5, reference: E2023-VL1
Mercury1.57126
Venus1.31115
Earth1.02276
Mars0.47693
Jupiter1.97852
Saturn6.07108
Uranus15.9491
Neptune26.8464

Observations

503 total observations over interval: 1999 11 04.30293 – 2024 01 05.264881
These data are available for download (format description).

Date (UT) J2000 RA J2000 Dec Magn Location Ref
1999 11 04.30293 01 58 53.30 +12 42 31.2 20.5 V 691 – Steward Observatory, Kitt Peak-Spacewatch MPS 16655
1999 11 04.32644 01 58 51.94 +12 42 26.3 20.6 V 691 – Steward Observatory, Kitt Peak-Spacewatch MPS 16655
1999 11 04.34799 01 58 50.73 +12 42 21.2 20.8 V 691 – Steward Observatory, Kitt Peak-Spacewatch MPS 16655
2003 09 28.41355 02 21 33.10 +13 36 26.3 21.0 V 691 – Steward Observatory, Kitt Peak-Spacewatch MPS 124118
2003 09 28.44204 02 21 31.89 +13 36 22.7 21.1 V 691 – Steward Observatory, Kitt Peak-Spacewatch MPS 124118
2003 09 28.46942 02 21 30.75 +13 36 19.1 21.2 V 691 – Steward Observatory, Kitt Peak-Spacewatch MPS 124118
2003 10 19.35808 02 04 04.23 +12 34 37.5 20.6 V 691 – Steward Observatory, Kitt Peak-Spacewatch MPS 124118
2003 10 19.38606 02 04 02.60 +12 34 31.3 20.8 V 691 – Steward Observatory, Kitt Peak-Spacewatch MPS 124118
2003 10 19.41414 02 04 00.96 +12 34 25.3 20.5 V 691 – Steward Observatory, Kitt Peak-Spacewatch MPS 124118
2003 10 25.21119 01 58 28.77 +12 12 55.2 20.5 V 691 – Steward Observatory, Kitt Peak-Spacewatch MPS 124118
2003 10 25.25112 01 58 26.40 +12 12 45.7 21.2 V 691 – Steward Observatory, Kitt Peak-Spacewatch MPS 124118
2003 10 25.27907 01 58 24.74 +12 12 39.7 20.7 V 691 – Steward Observatory, Kitt Peak-Spacewatch MPS 124118
2003 11 16.16150 01 39 24.94 +10 56 17.4 20.8 V 291 – LPL/Spacewatch II MPS 124118
2003 11 16.20078 01 39 23.22 +10 56 10.7 21.0 V 291 – LPL/Spacewatch II MPS 124118
2003 11 16.23289 01 39 21.80 +10 56 05.2 21.1 V 291 – LPL/Spacewatch II MPS 124118
2004 12 10.45867 07 53 49.37 +27 28 43.6 20.6 V 691 – Steward Observatory, Kitt Peak-Spacewatch MPS 121877
2004 12 10.48925 07 53 48.34 +27 28 50.2 20.5 V 691 – Steward Observatory, Kitt Peak-Spacewatch MPS 121877
2004 12 10.52118 07 53 47.25 +27 28 56.7 20.7 V 691 – Steward Observatory, Kitt Peak-Spacewatch MPS 121877
2004 12 14.44806 07 51 24.58 +27 43 19.9 20.5 V 691 – Steward Observatory, Kitt Peak-Spacewatch MPS 121877
2004 12 14.47429 07 51 23.50 +27 43 25.6 20.5 V 691 – Steward Observatory, Kitt Peak-Spacewatch MPS 121877
2004 12 14.49981 07 51 22.45 +27 43 31.3 20.5 V 691 – Steward Observatory, Kitt Peak-Spacewatch MPS 121877
2004 12 19.41357 07 47 47.63 +28 01 58.9 20.3 V 691 – Steward Observatory, Kitt Peak-Spacewatch MPS 122757
2004 12 19.43975 07 47 46.37 +28 02 04.8 20.7 V 691 – Steward Observatory, Kitt Peak-Spacewatch MPS 122757
2004 12 19.47131 07 47 44.78 +28 02 12.2 20.4 V 691 – Steward Observatory, Kitt Peak-Spacewatch MPS 122757
2005 01 07.28871 07 29 14.51 +29 07 30.3 20.0   704 – Lincoln Laboratory ETS, New Mexico MPS 123591
2005 01 07.30325 07 29 13.58 +29 07 31.3 20.3   704 – Lincoln Laboratory ETS, New Mexico MPS 123591
2005 01 07.31672 07 29 12.56 +29 07 33.8 20.0   704 – Lincoln Laboratory ETS, New Mexico MPS 123591
2005 01 07.32970 07 29 11.61 +29 07 36.9 20.0   704 – Lincoln Laboratory ETS, New Mexico MPS 123591
2005 01 19.08992 07 15 59.78 +29 34 03.7 20.0 V 691 – Steward Observatory, Kitt Peak-Spacewatch MPS 124767
2005 01 19.11674 07 15 57.98 +29 34 06.7 20.3 V 691 – Steward Observatory, Kitt Peak-Spacewatch MPS 124767
2005 01 19.14191 07 15 56.30 +29 34 09.4 20.0 V 691 – Steward Observatory, Kitt Peak-Spacewatch MPS 124767
2005 02 04.21749 07 00 20.44 +29 44 15.0 19.1 R G96 – Mt. Lemmon Survey MPS 126397
2005 02 04.22531 07 00 20.07 +29 44 14.9 19.6 R G96 – Mt. Lemmon Survey MPS 126397
2005 02 04.23322 07 00 19.65 +29 44 14.8 19.9 R G96 – Mt. Lemmon Survey MPS 126397
2005 02 04.24166 07 00 19.24 +29 44 14.7 17.9 R G96 – Mt. Lemmon Survey MPS 126397
2007 09 25.33101 02 14 03.94 +12 40 24.1 21.0 V G96 – Mt. Lemmon Survey MPS 217758
2007 09 25.33770 02 14 03.66 +12 40 23.2 20.2 V G96 – Mt. Lemmon Survey MPS 217758
2007 09 25.34497 02 14 03.37 +12 40 22.7 20.5 V G96 – Mt. Lemmon Survey MPS 217758
2007 09 25.35206 02 14 03.08 +12 40 21.7 20.9 V G96 – Mt. Lemmon Survey MPS 217758
2007 10 09.20245 02 03 23.39 +12 02 19.3 20.2 V 691 – Steward Observatory, Kitt Peak-Spacewatch MPS 218649
2007 10 09.22007 02 03 22.43 +12 02 15.9 20.3 V 691 – Steward Observatory, Kitt Peak-Spacewatch MPS 218649
2007 10 09.23770 02 03 21.49 +12 02 12.6 20.4 V 691 – Steward Observatory, Kitt Peak-Spacewatch MPS 218649
2007 10 14.96796 01 58 09.48 +11 42 10.3 20.5 R 947 – Saint-Sulpice MPS 220511
2007 10 14.98222 01 58 08.62 +11 42 06.8   947 – Saint-Sulpice MPS 220511
2007 10 14.99651 01 58 07.82 +11 42 04.6   947 – Saint-Sulpice MPS 220511
2007 10 15.28678 01 57 51.51 +11 41 02.3 20.1 V 703 – Catalina Sky Survey MPS 220511
2007 10 15.29269 01 57 51.26 +11 40 59.8 20.2 V 703 – Catalina Sky Survey MPS 220511
2007 10 15.29858 01 57 50.79 +11 41 00.3 20.0 V 703 – Catalina Sky Survey MPS 220511
2007 10 15.30441 01 57 50.50 +11 40 58.2 19.7 V 703 – Catalina Sky Survey MPS 220511
2007 10 20.27178 01 53 08.95 +11 22 22.4 20.0 V 703 – Catalina Sky Survey MPS 222513
2007 10 20.27874 01 53 08.59 +11 22 18.9 20.6 V 703 – Catalina Sky Survey MPS 222513
2007 10 20.28566 01 53 08.23 +11 22 19.1 20.6 V 703 – Catalina Sky Survey MPS 222513
2007 10 20.29257 01 53 07.80 +11 22 17.2 20.6 V 703 – Catalina Sky Survey MPS 222513
2007 10 21.19264 01 52 16.31 +11 18 51.5   691 – Steward Observatory, Kitt Peak-Spacewatch MPS 222513
2007 10 21.21024 01 52 15.32 +11 18 47.4   691 – Steward Observatory, Kitt Peak-Spacewatch MPS 222513
2007 10 21.22784 01 52 14.31 +11 18 43.7   691 – Steward Observatory, Kitt Peak-Spacewatch MPS 222513
2007 10 30.30505 01 43 41.23 +10 43 58.3 20.0 V G96 – Mt. Lemmon Survey MPS 223441
2007 10 30.31336 01 43 40.76 +10 43 56.1 20.0 V G96 – Mt. Lemmon Survey MPS 223441
2007 10 30.32168 01 43 40.29 +10 43 54.5 20.1 V G96 – Mt. Lemmon Survey MPS 223441
2007 10 30.33009 01 43 39.82 +10 43 52.4 20.0 V G96 – Mt. Lemmon Survey MPS 223441
2007 11 08.27429 01 35 53.05 +10 11 54.1   701 – Junk Bond Observatory, Sierra Vista MPS 224858
2007 11 08.29652 01 35 52.02 +10 11 49.6   701 – Junk Bond Observatory, Sierra Vista MPS 224858
2007 11 08.31874 01 35 50.87 +10 11 44.9   701 – Junk Bond Observatory, Sierra Vista MPS 224858
2007 11 08.34096 01 35 49.77 +10 11 40.5   701 – Junk Bond Observatory, Sierra Vista MPS 224858
2007 11 09.19652 01 35 08.83 +10 08 52.3   701 – Junk Bond Observatory, Sierra Vista MPS 226857
2007 11 09.21874 01 35 07.71 +10 08 47.3   701 – Junk Bond Observatory, Sierra Vista MPS 226857
2007 11 09.23541 01 35 06.88 +10 08 44.6   701 – Junk Bond Observatory, Sierra Vista MPS 226857
2007 11 09.24096 01 35 06.55 +10 08 43.8   701 – Junk Bond Observatory, Sierra Vista MPS 226857
2007 11 09.25763 01 35 05.76 +10 08 40.5   701 – Junk Bond Observatory, Sierra Vista MPS 226857
2007 11 09.26318 01 35 05.42 +10 08 38.2   701 – Junk Bond Observatory, Sierra Vista MPS 226857
2007 11 09.27985 01 35 04.68 +10 08 36.0   701 – Junk Bond Observatory, Sierra Vista MPS 226857
2007 11 09.30207 01 35 03.58 +10 08 31.7   701 – Junk Bond Observatory, Sierra Vista MPS 226857
2008 12 31.26735 07 23 00.96 +29 09 24.2 19.7   704 – Lincoln Laboratory ETS, New Mexico MPS 271758
2008 12 31.28009 07 23 00.33 +29 09 27.5 19.9   704 – Lincoln Laboratory ETS, New Mexico MPS 271758
2008 12 31.29322 07 22 59.25 +29 09 30.9 20.1   704 – Lincoln Laboratory ETS, New Mexico MPS 271758
2008 12 31.30607 07 22 58.46 +29 09 33.4 19.9   704 – Lincoln Laboratory ETS, New Mexico MPS 271758
2008 12 31.31873 07 22 57.70 +29 09 35.4 19.9   704 – Lincoln Laboratory ETS, New Mexico MPS 271758
2009 01 01.39983 07 21 47.41 +29 12 48.9 19.7 V G96 – Mt. Lemmon Survey MPS 270133
2009 01 01.40773 07 21 46.87 +29 12 50.3 19.8 V G96 – Mt. Lemmon Survey MPS 270133
2009 01 01.41567 07 21 46.36 +29 12 51.7 19.6 V G96 – Mt. Lemmon Survey MPS 270133
2009 01 01.42359 07 21 45.82 +29 12 52.7 19.8 V G96 – Mt. Lemmon Survey MPS 270133
2010 02 28.559002 16 35 54.68 -23 04 48.3   C51 – WISE MPS 316716
2010 02 28.691307 16 36 07.76 -23 05 33.6   C51 – WISE MPS 316716
2010 02 28.823611 16 36 20.82 -23 06 18.9   C51 – WISE MPS 316716
2010 02 28.955914 16 36 33.85 -23 07 04.2   C51 – WISE MPS 337205
2010 03 01.022131 16 36 40.37 -23 07 26.5   C51 – WISE MPS 316716
2010 03 01.088346 16 36 46.88 -23 07 49.3   C51 – WISE MPS 316716
2010 03 01.154435 16 36 53.41 -23 08 11.5   C51 – WISE MPS 316716
